Home   Weather   Rheine   Past weeks

Flag for Germany Past Weather in Rheine, North Rhine-Westphalia, Germany — Yesterday and Last 2 Weeks

Now
28 °F

Chilly.


Feels Like: 25 °F
Forecast: 20 / 34 °F
Wind: 3 mph from East

Location: Rheine-Bentlage

Current Time: Dec 4, 2016 at 11:26:41 am

Latest Report: Dec 4, 2016 at 10:20 am


Visibility: N/A

Pressure: 30.39 "Hg

Humidity: 93%

Dew Point: 27 °F

Location of RheineLocation

Past Weather in Rheine — Graph

°F

Rheine Temperature Yesterday

Maximum temperature yesterday: 39 °F (at 2:20 pm)
Minimum temperature yesterday: 27 °F (at 6:20 am)
Average temperature yesterday: 31 °F

High & Low Weather Summary for the Past Weeks

 TemperatureHumidityPressure
High57 °F (Nov 20, 3:20 pm)100% (Nov 21, 1:20 am)30.60 "Hg (Nov 21, 1:20 am)
Low19 °F (Nov 29, 3:20 am)53% (Dec 2, 1:20 pm)29.24 "Hg (Nov 20, 12:20 pm)
Average39 °F86%30.11 "Hg
* Reported Nov 19 9:20 am — Dec 4 9:20 am, Rheine, Weather by CustomWeather, © 2016

Note: Actual official high and low records may vary slightly from our data, if they occured in-between our weather recording intervals... More about our weather records

Advertising

Rheine Weather History for the Previous 24 Hours

Scroll right to see more
 ConditionsComfort  
Time TempWeatherWind HumidityBarometerVisibility
9:20 am
Sun, Dec 4
27 °FChilly.2 mph93%30.39 "HgN/A
8:20 am25 °FCold.1 mph93%30.36 "HgN/A
7:20 am25 °FCold.1 mph93%30.36 "HgN/A
6:20 am23 °FCold.No wind93%30.36 "HgN/A
5:20 am23 °FCold.1 mph93%30.36 "HgN/A
4:20 am23 °FCold.1 mph100%30.36 "HgN/A
3:20 am25 °FCold.1 mph100%30.36 "HgN/A
2:20 am25 °FCold.1 mph100%30.36 "HgN/A
1:20 am27 °FChilly.1 mph93%30.36 "HgN/A
12:20 am27 °FChilly.2 mph100%30.36 "HgN/A
11:20 pm
Sat, Dec 3
27 °FChilly.2 mph100%30.36 "HgN/A
10:20 pm27 °FChilly.2 mph100%30.36 "HgN/A
9:20 pm27 °FChilly.1 mph100%30.36 "HgN/A
8:20 pm27 °FChilly.1 mph100%30.33 "HgN/A
7:20 pm28 °FChilly.No wind93%30.33 "HgN/A
6:20 pm30 °FChilly.1 mph93%30.33 "HgN/A
5:20 pm32 °FChilly.2 mph93%30.33 "HgN/A
4:20 pm36 °FChilly.2 mph87%30.30 "HgN/A
3:20 pm39 °FChilly.2 mph81%30.30 "HgN/A
2:20 pm39 °FChilly.2 mph81%30.30 "HgN/A
1:20 pm37 °FChilly.3 mph87%30.30 "HgN/A
12:20 pm36 °FChilly.3 mph87%30.30 "HgN/A
11:20 am34 °FChilly.2 mph93%30.33 "HgN/A
Weather by CustomWeather, © 2016

See weather overviewHow to use our weather pages